TOM790 EGCC-HEGN

Flight info

Callsign TOM790
Flight time N/A
Altitude 33000
Route LISTO P18 TELBA L151 MID UL612 RESMI/N0448F350 UL612 OGULO DCT OKASI DCT OKEKO DCT MOU DCT MADIV DCT MOKIP DCT TUFTA DCT KOGAS DCT MEDAM DCT NITAM DCT MOGBO DCT CDC DCT BELIX UM728 EBOKA/N0442F370 UM728 SALUN N705 MMA P751 DASUM Y234 FYM M872 BOPOB BOPOB1A
Aircraft B738/M-SDE2E3FGHIRWXY/LB1

Departure

Time 2026-05-07 10:26
Airport Manchester Airport (EGCC)

Arrival

Time N/A
Airport Hurghada International Airport (HEGN)
Time Latitude Longitude Altitude Speed Heading
2026-05-07 09:56 53.36641 -2.28616 254 ft 0 kts 135°
2026-05-07 10:12 53.36642 -2.28618 254 ft 2 kts 135°
2026-05-07 10:13 53.36657 -2.28643 254 ft 2 kts 134°
2026-05-07 10:13 53.36671 -2.28659 254 ft 4 kts 208°
2026-05-07 10:13 53.36676 -2.28657 254 ft 4 kts 224°
2026-05-07 10:13 53.36669 -2.28668 254 ft 0 kts 224°
2026-05-07 10:16 53.36654 -2.28694 254 ft 6 kts 229°
2026-05-07 10:16 53.36639 -2.28760 254 ft 6 kts 246°
2026-05-07 10:17 53.36605 -2.28784 254 ft 6 kts 165°
2026-05-07 10:17 53.36571 -2.28744 254 ft 6 kts 134°
2026-05-07 10:17 53.36540 -2.28691 254 ft 7 kts 135°
2026-05-07 10:17 53.36495 -2.28615 254 ft 11 kts 135°
2026-05-07 10:18 53.36430 -2.28509 254 ft 13 kts 143°
2026-05-07 10:18 53.36344 -2.28461 254 ft 13 kts 152°
2026-05-07 10:18 53.36279 -2.28360 254 ft 13 kts 134°
2026-05-07 10:18 53.36218 -2.28257 254 ft 12 kts 135°
2026-05-07 10:19 53.36160 -2.28156 254 ft 12 kts 133°
2026-05-07 10:19 53.36100 -2.28060 254 ft 12 kts 139°
2026-05-07 10:19 53.36039 -2.27971 254 ft 11 kts 139°
2026-05-07 10:19 53.35980 -2.27885 254 ft 11 kts 141°
2026-05-07 10:20 53.35908 -2.27849 254 ft 11 kts 179°
2026-05-07 10:20 53.35843 -2.27791 252 ft 11 kts 133°
2026-05-07 10:20 53.35791 -2.27694 250 ft 11 kts 136°
2026-05-07 10:20 53.35720 -2.27635 247 ft 12 kts 160°
2026-05-07 10:21 53.35647 -2.27559 245 ft 12 kts 139°
2026-05-07 10:21 53.35599 -2.27494 244 ft 8 kts 141°
2026-05-07 10:21 53.35578 -2.27466 244 ft 0 kts 141°
2026-05-07 10:22 53.35560 -2.27442 245 ft 6 kts 141°
2026-05-07 10:22 53.35511 -2.27377 247 ft 12 kts 141°
2026-05-07 10:22 53.35430 -2.27266 246 ft 18 kts 141°
2026-05-07 10:23 53.35338 -2.27193 243 ft 15 kts 181°
2026-05-07 10:23 53.35228 -2.27221 236 ft 15 kts 193°
2026-05-07 10:23 53.35181 -2.27238 231 ft 6 kts 192°
2026-05-07 10:23 53.35164 -2.27245 230 ft 0 kts 192°
2026-05-07 10:24 53.35162 -2.27246 230 ft 1 kts 192°
2026-05-07 10:24 53.35125 -2.27259 228 ft 11 kts 192°
2026-05-07 10:25 53.35043 -2.27287 225 ft 12 kts 193°
2026-05-07 10:25 53.34984 -2.27373 224 ft 11 kts 230°
2026-05-07 10:25 53.34858 -2.27632 221 ft 63 kts 231°
2026-05-07 10:25 53.34429 -2.28516 225 ft 131 kts 231°
2026-05-07 10:26 53.33728 -2.29885 450 ft 168 kts 227°
2026-05-07 10:26 53.32955 -2.31438 1148 ft 182 kts 228°
2026-05-07 10:26 53.32245 -2.33078 2205 ft 177 kts 241°
2026-05-07 10:26 53.32088 -2.35264 2580 ft 208 kts 276°
2026-05-07 10:27 53.32405 -2.37742 2841 ft 228 kts 278°
2026-05-07 10:27 53.32685 -2.40435 3077 ft 245 kts 265°
2026-05-07 10:27 53.32170 -2.43092 3499 ft 249 kts 231°
2026-05-07 10:27 53.30827 -2.44851 4293 ft 246 kts 201°
2026-05-07 10:28 53.29142 -2.45295 4922 ft 250 kts 181°
2026-05-07 10:28 53.27387 -2.45114 5597 ft 258 kts 169°
2026-05-07 10:28 53.25728 -2.43870 6326 ft 265 kts 154°
2026-05-07 10:28 53.24096 -2.42383 7024 ft 269 kts 154°
2026-05-07 10:29 53.22442 -2.40908 7766 ft 270 kts 154°
2026-05-07 10:29 53.20785 -2.39438 8562 ft 270 kts 154°
2026-05-07 10:29 53.19113 -2.37965 9272 ft 273 kts 154°
2026-05-07 10:30 53.16284 -2.35486 10370 ft 281 kts 155°
2026-05-07 10:30 53.14487 -2.33922 10537 ft 303 kts 154°
2026-05-07 10:30 53.12548 -2.32232 10704 ft 324 kts 154°
2026-05-07 10:30 53.09826 -2.29858 11203 ft 340 kts 154°
2026-05-07 10:31 53.07722 -2.28022 11848 ft 343 kts 154°
2026-05-07 10:31 53.06285 -2.26769 12266 ft 346 kts 154°
2026-05-07 10:31 53.04141 -2.24904 12936 ft 349 kts 155°
2026-05-07 10:31 53.01974 -2.23023 13568 ft 354 kts 154°
2026-05-07 10:32 52.99780 -2.21120 14155 ft 358 kts 155°
2026-05-07 10:32 52.97569 -2.19205 14768 ft 360 kts 154°
2026-05-07 10:32 52.95336 -2.17271 15341 ft 363 kts 154°
2026-05-07 10:32 52.93083 -2.15322 15911 ft 367 kts 154°
2026-05-07 10:33 52.90840 -2.13383 16489 ft 370 kts 154°
2026-05-07 10:33 52.88547 -2.11403 17072 ft 373 kts 154°
2026-05-07 10:33 52.86237 -2.09410 17659 ft 376 kts 154°
2026-05-07 10:33 52.83908 -2.07404 18208 ft 379 kts 154°
2026-05-07 10:34 52.81556 -2.05380 18722 ft 381 kts 154°
2026-05-07 10:34 52.79205 -2.03358 19048 ft 380 kts 154°
2026-05-07 10:34 52.76867 -2.01349 19045 ft 377 kts 154°
2026-05-07 10:34 52.74530 -1.99346 19061 ft 382 kts 154°
2026-05-07 10:35 52.72166 -1.97323 19064 ft 383 kts 154°
2026-05-07 10:35 52.69799 -1.95298 19063 ft 383 kts 154°
2026-05-07 10:35 52.67460 -1.93300 19174 ft 388 kts 154°
2026-05-07 10:35 52.65068 -1.91258 19719 ft 385 kts 154°
2026-05-07 10:36 52.62696 -1.89237 20244 ft 384 kts 153°
2026-05-07 10:36 52.60338 -1.87231 20594 ft 388 kts 153°
2026-05-07 10:36 52.57922 -1.85176 20984 ft 390 kts 153°
2026-05-07 10:36 52.55505 -1.83125 21447 ft 391 kts 153°
2026-05-07 10:37 52.53084 -1.81071 21852 ft 392 kts 153°
2026-05-07 10:37 52.50649 -1.79009 22228 ft 395 kts 153°
2026-05-07 10:37 52.48197 -1.76935 22502 ft 399 kts 153°
2026-05-07 10:37 52.45715 -1.74838 22857 ft 402 kts 153°
2026-05-07 10:38 52.43229 -1.72740 23271 ft 402 kts 153°
2026-05-07 10:38 52.40737 -1.70638 23655 ft 404 kts 153°
2026-05-07 10:38 52.38226 -1.68525 23936 ft 406 kts 153°
2026-05-07 10:38 52.35704 -1.66405 24202 ft 409 kts 153°
2026-05-07 10:39 52.33161 -1.64294 24507 ft 410 kts 153°
2026-05-07 10:39 52.30605 -1.62198 24777 ft 412 kts 153°
2026-05-07 10:39 52.28032 -1.60097 25059 ft 414 kts 153°
2026-05-07 10:39 52.25452 -1.57992 25347 ft 416 kts 153°
2026-05-07 10:40 52.22892 -1.55902 25642 ft 417 kts 153°
2026-05-07 10:40 52.20290 -1.53779 25921 ft 418 kts 153°
2026-05-07 10:40 52.17678 -1.51648 26175 ft 420 kts 153°
2026-05-07 10:40 52.15055 -1.49511 26416 ft 422 kts 153°
2026-05-07 10:41 52.12418 -1.47364 26669 ft 424 kts 153°
2026-05-07 10:41 52.09772 -1.45213 26916 ft 426 kts 153°
2026-05-07 10:41 52.07118 -1.43060 27153 ft 428 kts 153°
2026-05-07 10:41 52.04451 -1.40892 27387 ft 429 kts 152°
2026-05-07 10:42 52.01770 -1.38710 27607 ft 432 kts 153°
2026-05-07 10:42 51.99077 -1.36521 27823 ft 434 kts 153°
2026-05-07 10:42 51.96376 -1.34330 28067 ft 435 kts 153°
2026-05-07 10:42 51.93668 -1.32145 28309 ft 436 kts 153°
2026-05-07 10:43 51.90940 -1.29950 28533 ft 438 kts 153°
2026-05-07 10:43 51.88211 -1.27757 28744 ft 439 kts 153°
2026-05-07 10:43 51.85506 -1.25585 28953 ft 440 kts 153°
2026-05-07 10:43 51.82721 -1.23351 29172 ft 442 kts 152°
2026-05-07 10:44 51.79961 -1.21141 29372 ft 443 kts 153°
2026-05-07 10:44 51.77190 -1.18923 29527 ft 446 kts 153°
2026-05-07 10:44 51.74404 -1.16696 29713 ft 447 kts 153°
2026-05-07 10:44 51.71610 -1.14467 29929 ft 448 kts 153°
2026-05-07 10:45 51.68848 -1.12264 30162 ft 448 kts 153°
2026-05-07 10:45 51.66054 -1.10040 30422 ft 447 kts 153°
2026-05-07 10:45 51.63270 -1.07828 30686 ft 446 kts 153°
2026-05-07 10:45 51.60540 -1.05472 30896 ft 445 kts 146°
2026-05-07 10:46 51.58000 -1.02623 31102 ft 445 kts 143°
2026-05-07 10:46 51.55511 -0.99669 31329 ft 444 kts 143°
2026-05-07 10:46 51.53021 -0.96726 31535 ft 444 kts 144°
2026-05-07 10:46 51.50513 -0.93823 31705 ft 445 kts 144°
2026-05-07 10:47 51.47974 -0.90928 31859 ft 446 kts 145°
2026-05-07 10:47 51.45444 -0.88179 32090 ft 445 kts 150°
2026-05-07 10:47 51.42672 -0.85999 32334 ft 443 kts 158°
2026-05-07 10:47 51.39805 -0.84197 32580 ft 442 kts 159°
2026-05-07 10:48 51.36927 -0.82425 32689 ft 444 kts 159°
2026-05-07 10:48 51.34039 -0.80638 32901 ft 444 kts 159°
2026-05-07 10:48 51.31168 -0.78841 33113 ft 444 kts 159°
2026-05-07 10:48 51.28282 -0.77017 33207 ft 446 kts 159°
2026-05-07 10:49 51.25395 -0.75183 33413 ft 446 kts 159°
2026-05-07 10:49 51.22518 -0.73351 33687 ft 444 kts 159°
2026-05-07 10:49 51.19651 -0.71526 33919 ft 443 kts 159°
2026-05-07 10:49 51.16823 -0.69728 34081 ft 443 kts 159°
2026-05-07 10:50 51.13950 -0.67907 34190 ft 445 kts 159°
2026-05-07 10:50 51.11073 -0.66084 34307 ft 446 kts 159°
2026-05-07 10:50 51.08184 -0.64259 34470 ft 445 kts 159°
2026-05-07 10:50 51.05394 -0.62394 34640 ft 445 kts 154°
2026-05-07 10:51 51.02724 -0.59889 34752 ft 447 kts 147°
2026-05-07 10:51 51.00149 -0.57112 34894 ft 447 kts 146°
2026-05-07 10:51 50.97590 -0.54308 35024 ft 447 kts 146°
2026-05-07 10:51 50.95019 -0.51501 35068 ft 449 kts 147°
2026-05-07 10:52 50.89873 -0.45970 35069 ft 448 kts 147°
2026-05-07 10:52 50.84706 -0.40490 35065 ft 446 kts 148°
2026-05-07 10:53 50.79553 -0.35049 35075 ft 444 kts 148°
2026-05-07 10:53 50.74414 -0.29633 35076 ft 443 kts 148°
2026-05-07 10:54 50.69282 -0.24239 35078 ft 443 kts 148°
2026-05-07 10:54 50.64139 -0.18850 35073 ft 444 kts 148°
2026-05-07 10:55 50.58988 -0.13463 35079 ft 445 kts 148°
2026-05-07 10:55 50.53814 -0.08064 35080 ft 447 kts 148°
2026-05-07 10:56 50.48653 -0.02691 35080 ft 449 kts 148°
2026-05-07 10:56 50.43431 0.02731 35076 ft 451 kts 148°
2026-05-07 10:57 50.38198 0.08169 35071 ft 452 kts 148°
2026-05-07 10:57 50.32945 0.13620 35081 ft 453 kts 148°
2026-05-07 10:58 50.27683 0.19075 35079 ft 453 kts 148°
2026-05-07 10:58 50.22418 0.24519 35077 ft 453 kts 148°
2026-05-07 10:59 50.17194 0.29898 35067 ft 452 kts 148°
2026-05-07 10:59 50.11936 0.35289 35078 ft 452 kts 148°
2026-05-07 11:00 50.06687 0.40657 35081 ft 451 kts 148°
2026-05-07 11:00 50.01449 0.46004 35078 ft 450 kts 148°
2026-05-07 11:01 49.96212 0.51336 35059 ft 450 kts 148°
2026-05-07 11:01 49.90980 0.56651 35062 ft 449 kts 149°
2026-05-07 11:02 49.85781 0.61925 35069 ft 449 kts 147°
2026-05-07 11:02 49.80838 0.67856 35079 ft 450 kts 142°
2026-05-07 11:03 49.76013 0.74081 35062 ft 451 kts 142°
2026-05-07 11:03 49.71160 0.80264 35062 ft 452 kts 142°
2026-05-07 11:04 49.66280 0.86386 35067 ft 452 kts 143°
2026-05-07 11:04 49.61374 0.92503 35064 ft 453 kts 143°
2026-05-07 11:05 49.56497 0.98568 35076 ft 454 kts 143°
2026-05-07 11:05 49.51576 1.04675 35063 ft 454 kts 143°
2026-05-07 11:06 49.46645 1.10781 35076 ft 455 kts 143°
2026-05-07 11:06 49.41713 1.16872 35074 ft 455 kts 143°
2026-05-07 11:07 49.36781 1.22943 35079 ft 455 kts 143°
2026-05-07 11:07 49.31839 1.29013 35065 ft 455 kts 143°
2026-05-07 11:08 49.26895 1.35071 35065 ft 454 kts 143°
2026-05-07 11:08 49.21956 1.41110 35065 ft 453 kts 143°
2026-05-07 11:09 49.17031 1.47115 35070 ft 452 kts 143°
2026-05-07 11:09 49.12143 1.53059 35076 ft 452 kts 143°
2026-05-07 11:10 49.07213 1.59039 35054 ft 453 kts 143°
2026-05-07 11:10 49.02274 1.65015 35046 ft 454 kts 143°
2026-05-07 11:11 48.97336 1.70973 35049 ft 452 kts 143°
2026-05-07 11:11 48.92414 1.76897 35056 ft 451 kts 143°
2026-05-07 11:12 48.87495 1.82802 35057 ft 449 kts 143°
2026-05-07 11:12 48.82589 1.88676 35052 ft 449 kts 143°
2026-05-07 11:13 48.77681 1.94538 35044 ft 449 kts 143°
2026-05-07 11:13 48.72805 2.00348 35049 ft 449 kts 143°
2026-05-07 11:14 48.67892 2.06186 35049 ft 449 kts 144°
2026-05-07 11:14 48.62970 2.12022 35056 ft 450 kts 144°
2026-05-07 11:15 48.58033 2.17860 35051 ft 451 kts 144°
2026-05-07 11:15 48.53373 2.24243 35078 ft 453 kts 136°
2026-05-07 11:16 48.48975 2.31080 35060 ft 454 kts 136°
2026-05-07 11:16 48.44550 2.37885 35060 ft 455 kts 136°
2026-05-07 11:17 48.40107 2.44596 35054 ft 455 kts 137°
2026-05-07 11:17 48.35620 2.51334 35055 ft 455 kts 137°
2026-05-07 11:18 48.31134 2.58059 35053 ft 455 kts 137°
2026-05-07 11:18 48.26216 2.63969 35049 ft 451 kts 153°
2026-05-07 11:19 48.21494 2.67214 35067 ft 449 kts 159°
2026-05-07 11:19 48.15917 2.71500 35051 ft 451 kts 153°
2026-05-07 11:20 48.10500 2.76273 35044 ft 454 kts 145°
2026-05-07 11:20 48.08135 2.79415 35057 ft 457 kts 134°
2026-05-07 11:20 48.06038 2.82985 35068 ft 457 kts 133°
2026-05-07 11:21 48.01872 2.90177 35050 ft 458 kts 133°
2026-05-07 11:21 47.97676 2.97331 35054 ft 458 kts 133°
2026-05-07 11:22 47.93482 3.04397 35047 ft 458 kts 133°
2026-05-07 11:22 47.89237 3.11504 35051 ft 458 kts 134°
2026-05-07 11:23 47.84989 3.18593 35050 ft 459 kts 134°
2026-05-07 11:23 47.80733 3.25679 35047 ft 459 kts 134°
2026-05-07 11:24 47.76472 3.32757 35045 ft 459 kts 134°
2026-05-07 11:24 47.72234 3.39778 35040 ft 459 kts 134°
2026-05-07 11:25 47.67965 3.46832 35051 ft 459 kts 134°
2026-05-07 11:25 47.63686 3.53884 35049 ft 460 kts 134°
2026-05-07 11:26 47.59403 3.60923 35050 ft 460 kts 134°
2026-05-07 11:26 47.55113 3.67956 35052 ft 460 kts 134°
2026-05-07 11:27 47.50816 3.74981 35041 ft 460 kts 134°
2026-05-07 11:27 47.46512 3.81998 35047 ft 461 kts 134°
2026-05-07 11:28 47.42201 3.89009 35049 ft 461 kts 134°
2026-05-07 11:28 47.37876 3.96025 35043 ft 461 kts 134°
2026-05-07 11:29 47.33551 4.03021 35045 ft 461 kts 134°
2026-05-07 11:29 47.29253 4.09958 35035 ft 461 kts 135°
2026-05-07 11:30 47.24924 4.16925 35035 ft 461 kts 135°
2026-05-07 11:30 47.20591 4.23879 35049 ft 461 kts 135°
2026-05-07 11:31 47.16244 4.30839 35043 ft 462 kts 135°
2026-05-07 11:31 47.11892 4.37788 35038 ft 462 kts 135°
2026-05-07 11:32 47.05343 4.48211 35036 ft 463 kts 135°
2026-05-07 11:33 47.00968 4.55153 35033 ft 464 kts 135°
2026-05-07 11:33 46.96575 4.62104 35044 ft 465 kts 135°
2026-05-07 11:34 46.92168 4.69059 35039 ft 466 kts 135°
2026-05-07 11:34 46.87761 4.75996 35035 ft 466 kts 135°
2026-05-07 11:35 46.83341 4.82935 35034 ft 466 kts 136°
2026-05-07 11:35 46.78946 4.89819 35032 ft 467 kts 136°
2026-05-07 11:36 46.74504 4.96758 35039 ft 467 kts 136°
2026-05-07 11:36 46.70057 5.03686 35040 ft 468 kts 136°
2026-05-07 11:37 46.65602 5.10608 35038 ft 469 kts 136°
2026-05-07 11:37 46.61129 5.17541 35036 ft 470 kts 136°
2026-05-07 11:38 46.56651 5.24464 35037 ft 470 kts 136°
2026-05-07 11:38 46.52188 5.31345 35034 ft 471 kts 136°
2026-05-07 11:39 46.47686 5.38270 35033 ft 471 kts 136°
2026-05-07 11:39 46.43163 5.45208 35015 ft 472 kts 136°
2026-05-07 11:40 46.38673 5.52078 35030 ft 472 kts 136°
2026-05-07 11:40 46.34152 5.58977 35045 ft 472 kts 136°
2026-05-07 11:41 46.29620 5.65876 35014 ft 473 kts 136°
2026-05-07 11:41 46.25081 5.72768 35020 ft 473 kts 136°
2026-05-07 11:42 46.20538 5.79648 35021 ft 473 kts 137°
2026-05-07 11:42 46.15986 5.86525 35015 ft 474 kts 137°
2026-05-07 11:43 46.11420 5.93403 35021 ft 474 kts 137°
2026-05-07 11:43 46.06877 6.00232 35019 ft 474 kts 137°
2026-05-07 11:44 46.02307 6.07083 35019 ft 474 kts 137°
2026-05-07 11:44 45.97731 6.13926 35015 ft 474 kts 137°
2026-05-07 11:45 45.93156 6.20751 35023 ft 474 kts 137°
2026-05-07 11:45 45.88573 6.27569 35019 ft 475 kts 137°
2026-05-07 11:46 45.83982 6.34386 35011 ft 475 kts 137°
2026-05-07 11:46 45.79256 6.40911 35003 ft 471 kts 147°
2026-05-07 11:47 45.73931 6.46308 34994 ft 469 kts 150°
2026-05-07 11:47 45.68548 6.51623 34989 ft 469 kts 150°
2026-05-07 11:48 45.63206 6.56985 34991 ft 469 kts 149°
2026-05-07 11:48 45.57884 6.62370 34983 ft 468 kts 149°
2026-05-07 11:49 45.52599 6.67714 34996 ft 468 kts 149°
2026-05-07 11:49 45.47277 6.73080 35007 ft 468 kts 150°
2026-05-07 11:50 45.41947 6.78438 34997 ft 468 kts 150°
2026-05-07 11:50 45.36620 6.83781 34978 ft 469 kts 150°
2026-05-07 11:51 45.31321 6.89086 35001 ft 468 kts 150°
2026-05-07 11:51 45.26013 6.94466 34991 ft 471 kts 146°
2026-05-07 11:52 45.21239 7.00928 34980 ft 476 kts 139°
2026-05-07 11:52 45.16568 7.07580 34981 ft 476 kts 140°
2026-05-07 11:53 45.11828 7.14122 34986 ft 475 kts 141°
2026-05-07 11:53 45.07654 7.21451 35008 ft 481 kts 129°
2026-05-07 11:54 45.03897 7.29282 34993 ft 480 kts 129°
2026-05-07 11:54 45.00084 7.37031 34998 ft 479 kts 130°
2026-05-07 11:55 44.96164 7.44554 34987 ft 478 kts 134°
2026-05-07 11:55 44.91890 7.51717 34981 ft 476 kts 136°
2026-05-07 11:56 44.87554 7.58801 34997 ft 477 kts 136°
2026-05-07 11:56 44.83237 7.65934 34998 ft 479 kts 136°
2026-05-07 11:57 44.78924 7.73121 35001 ft 481 kts 135°
2026-05-07 11:57 44.74601 7.80333 35004 ft 482 kts 135°
2026-05-07 11:58 44.70262 7.87554 34973 ft 483 kts 136°
2026-05-07 11:58 44.65918 7.94762 34984 ft 484 kts 136°
2026-05-07 11:59 44.61560 8.01970 34978 ft 485 kts 136°
2026-05-07 11:59 44.57214 8.09141 34994 ft 486 kts 136°
2026-05-07 12:00 44.52830 8.16356 34993 ft 486 kts 136°
2026-05-07 12:00 44.48435 8.23572 34983 ft 487 kts 136°
2026-05-07 12:01 44.44042 8.30765 34986 ft 486 kts 136°
2026-05-07 12:01 44.39647 8.37945 34989 ft 485 kts 136°
2026-05-07 12:02 44.35251 8.45108 35008 ft 485 kts 136°
2026-05-07 12:02 44.30854 8.52254 34999 ft 484 kts 136°
2026-05-07 12:03 44.26467 8.59368 34992 ft 482 kts 137°
2026-05-07 12:03 44.22097 8.66435 34991 ft 480 kts 137°
2026-05-07 12:04 44.17737 8.73468 34987 ft 479 kts 137°
2026-05-07 12:04 44.13412 8.80426 34994 ft 477 kts 137°
2026-05-07 12:05 44.09063 8.87405 34994 ft 476 kts 137°
2026-05-07 12:05 44.04717 8.94365 34994 ft 476 kts 137°
2026-05-07 12:06 44.01106 9.00133 34994 ft 475 kts 137°
2026-05-07 12:06 43.96762 9.07057 35005 ft 475 kts 137°
2026-05-07 12:07 43.92410 9.13978 35002 ft 476 kts 137°
2026-05-07 12:07 43.88052 9.20891 35008 ft 476 kts 137°
2026-05-07 12:08 43.83679 9.27811 34990 ft 477 kts 137°
2026-05-07 12:08 43.79337 9.34666 35002 ft 477 kts 137°
2026-05-07 12:09 43.74957 9.41563 35015 ft 477 kts 137°
2026-05-07 12:09 43.70572 9.48453 35006 ft 477 kts 138°
2026-05-07 12:10 43.66180 9.55337 35019 ft 477 kts 138°
2026-05-07 12:10 43.61779 9.62220 34991 ft 478 kts 138°
2026-05-07 12:11 43.57382 9.69079 35012 ft 477 kts 138°
2026-05-07 12:11 43.52978 9.75933 35018 ft 477 kts 138°
2026-05-07 12:12 43.48581 9.82759 35015 ft 476 kts 138°
2026-05-07 12:12 43.44211 9.89529 35015 ft 476 kts 138°
2026-05-07 12:13 43.39814 9.96323 35020 ft 475 kts 138°
2026-05-07 12:13 43.35413 10.03106 35020 ft 474 kts 138°
2026-05-07 12:14 43.31011 10.09875 35025 ft 474 kts 138°
2026-05-07 12:14 43.26612 10.16623 35025 ft 474 kts 138°
2026-05-07 12:15 43.22213 10.23356 35011 ft 474 kts 138°
2026-05-07 12:15 43.17839 10.30035 35024 ft 473 kts 138°
2026-05-07 12:16 43.13436 10.36744 35019 ft 473 kts 138°
2026-05-07 12:16 43.09031 10.43439 35017 ft 473 kts 139°
2026-05-07 12:17 43.04625 10.50120 35022 ft 473 kts 139°
2026-05-07 12:17 43.00213 10.56795 35023 ft 473 kts 139°
2026-05-07 12:18 42.95794 10.63464 35018 ft 474 kts 139°
2026-05-07 12:18 42.91367 10.70131 35003 ft 474 kts 139°
2026-05-07 12:19 42.86964 10.76747 35004 ft 474 kts 139°
2026-05-07 12:19 42.82527 10.83398 35001 ft 474 kts 139°
2026-05-07 12:20 42.78073 10.90057 34995 ft 476 kts 139°
2026-05-07 12:20 42.73608 10.96721 34996 ft 476 kts 139°
2026-05-07 12:21 42.69143 11.03368 34981 ft 476 kts 139°
2026-05-07 12:21 42.64670 11.10013 34996 ft 477 kts 140°
2026-05-07 12:22 42.60220 11.16607 35005 ft 476 kts 139°
2026-05-07 12:22 42.55747 11.23222 35005 ft 475 kts 139°
2026-05-07 12:23 42.51280 11.29812 35019 ft 474 kts 140°
2026-05-07 12:23 42.46812 11.36389 35023 ft 473 kts 140°
2026-05-07 12:24 42.42353 11.42938 35017 ft 472 kts 140°
2026-05-07 12:24 42.37896 11.49467 35018 ft 472 kts 140°
2026-05-07 12:25 42.33439 11.55981 35025 ft 472 kts 140°
2026-05-07 12:25 42.28999 11.62456 35009 ft 472 kts 140°
2026-05-07 12:26 42.24530 11.68959 34996 ft 472 kts 140°
2026-05-07 12:26 42.20056 11.75456 35011 ft 473 kts 140°
2026-05-07 12:27 42.15568 11.81957 35020 ft 474 kts 140°
2026-05-07 12:27 42.11072 11.88457 35047 ft 475 kts 140°
2026-05-07 12:28 42.06562 11.94961 35076 ft 476 kts 140°
2026-05-07 12:28 42.02039 12.01470 35091 ft 477 kts 140°
2026-05-07 12:29 41.97510 12.07976 35064 ft 476 kts 140°
2026-05-07 12:29 41.92985 12.14461 35099 ft 475 kts 140°
2026-05-07 12:30 41.88496 12.20879 34991 ft 474 kts 141°
2026-05-07 12:30 41.83970 12.27333 34996 ft 474 kts 141°
2026-05-07 12:31 41.79439 12.33782 34995 ft 474 kts 141°
2026-05-07 12:31 41.74910 12.40214 34999 ft 474 kts 141°
2026-05-07 12:32 41.70375 12.46639 34978 ft 474 kts 141°
2026-05-07 12:32 41.65840 12.53051 34998 ft 475 kts 141°
2026-05-07 12:33 41.59034 12.62646 35006 ft 477 kts 141°
2026-05-07 12:33 41.54444 12.69099 34992 ft 478 kts 141°
2026-05-07 12:34 41.49855 12.75538 34987 ft 479 kts 141°
2026-05-07 12:34 41.45255 12.81979 34991 ft 479 kts 142°
2026-05-07 12:35 41.40640 12.88425 34994 ft 481 kts 142°
2026-05-07 12:35 41.36009 12.94880 35007 ft 482 kts 142°
2026-05-07 12:36 41.31383 13.01313 35001 ft 484 kts 142°
2026-05-07 12:36 41.26717 13.07788 35002 ft 485 kts 142°
2026-05-07 12:37 41.22037 13.14269 34949 ft 486 kts 142°
2026-05-07 12:37 41.17354 13.20741 34993 ft 487 kts 142°
2026-05-07 12:38 41.12643 13.27233 35004 ft 488 kts 142°
2026-05-07 12:38 41.07916 13.33734 35004 ft 490 kts 142°
2026-05-07 12:39 41.03168 13.40250 34999 ft 492 kts 142°
2026-05-07 12:39 40.98435 13.46731 34996 ft 493 kts 142°
2026-05-07 12:40 40.93657 13.53262 34983 ft 494 kts 142°
2026-05-07 12:40 40.88859 13.59802 34994 ft 496 kts 142°
2026-05-07 12:41 40.84036 13.66362 34995 ft 498 kts 142°
2026-05-07 12:41 40.79187 13.72943 34994 ft 501 kts 142°
2026-05-07 12:42 40.74320 13.79536 34987 ft 502 kts 142°
2026-05-07 12:42 40.69440 13.86131 34946 ft 503 kts 143°
2026-05-07 12:43 40.64546 13.92729 34980 ft 504 kts 143°
2026-05-07 12:43 40.59632 13.99339 34991 ft 506 kts 143°
2026-05-07 12:44 40.54700 14.05960 34984 ft 507 kts 143°
2026-05-07 12:44 40.49748 14.12591 34980 ft 508 kts 143°
2026-05-07 12:45 40.44823 14.19174 34958 ft 509 kts 144°
2026-05-07 12:45 40.39848 14.25808 34969 ft 510 kts 144°
2026-05-07 12:46 40.34856 14.32447 34974 ft 511 kts 144°
2026-05-07 12:46 40.29859 14.39079 34981 ft 512 kts 144°
2026-05-07 12:47 40.24841 14.45724 34976 ft 513 kts 144°
2026-05-07 12:47 40.19851 14.52317 34943 ft 513 kts 145°
2026-05-07 12:48 40.14821 14.58951 34963 ft 514 kts 146°
2026-05-07 12:48 40.09786 14.65576 34970 ft 514 kts 146°
2026-05-07 12:49 40.04746 14.72193 34967 ft 513 kts 146°
2026-05-07 12:49 39.99707 14.78792 34966 ft 513 kts 146°
2026-05-07 12:50 39.94669 14.85376 34945 ft 512 kts 146°
2026-05-07 12:50 39.89644 14.91930 34959 ft 511 kts 146°
2026-05-07 12:51 39.84620 14.98466 34963 ft 510 kts 146°
2026-05-07 12:51 39.79629 15.04944 34964 ft 509 kts 146°
2026-05-07 12:52 39.74605 15.11450 34967 ft 510 kts 146°
2026-05-07 12:52 39.69579 15.17945 34959 ft 510 kts 146°
2026-05-07 12:53 39.64540 15.24443 34963 ft 510 kts 146°
2026-05-07 12:53 39.60346 15.29842 34959 ft 511 kts 145°
2026-05-07 12:54 39.55297 15.36327 34963 ft 512 kts 146°
2026-05-07 12:54 39.49410 15.43872 34964 ft 513 kts 146°
2026-05-07 12:55 39.45152 15.49316 34959 ft 514 kts 146°
2026-05-07 12:55 39.40083 15.55786 34949 ft 514 kts 145°
2026-05-07 12:56 39.34996 15.62266 34945 ft 513 kts 146°
2026-05-07 12:56 39.29907 15.68735 34944 ft 513 kts 145°
2026-05-07 12:57 39.24814 15.75193 34957 ft 513 kts 145°
2026-05-07 12:57 39.19724 15.81632 34962 ft 512 kts 145°
2026-05-07 12:58 39.14635 15.88058 34936 ft 512 kts 145°
2026-05-07 12:58 39.09553 15.94461 34962 ft 511 kts 145°
2026-05-07 12:59 39.04471 16.00851 34958 ft 510 kts 145°
2026-05-07 12:59 38.99393 16.07221 34990 ft 509 kts 145°
2026-05-07 13:00 38.94314 16.13583 34995 ft 509 kts 145°
2026-05-07 13:00 38.89233 16.19929 34991 ft 509 kts 145°
2026-05-07 13:01 38.84182 16.26226 34992 ft 509 kts 144°
2026-05-07 13:01 38.79101 16.32550 34997 ft 509 kts 144°
2026-05-07 13:02 38.74076 16.38982 34983 ft 514 kts 139°
2026-05-07 13:02 38.69447 16.45990 35009 ft 515 kts 136°
2026-05-07 13:03 38.64923 16.53094 35008 ft 513 kts 136°
2026-05-07 13:03 38.60390 16.60112 35013 ft 511 kts 137°
2026-05-07 13:04 38.55815 16.67084 35035 ft 511 kts 137°
2026-05-07 13:04 38.51223 16.74034 35024 ft 512 kts 137°
2026-05-07 13:05 38.46611 16.81003 35037 ft 513 kts 137°
2026-05-07 13:05 38.42024 16.87924 35033 ft 515 kts 137°
2026-05-07 13:06 38.37389 16.94907 35026 ft 517 kts 137°
2026-05-07 13:06 38.32728 17.01914 35026 ft 518 kts 137°
2026-05-07 13:07 38.28064 17.08911 35009 ft 519 kts 137°
2026-05-07 13:07 38.23389 17.15909 35021 ft 520 kts 137°
2026-05-07 13:08 38.18695 17.22919 35022 ft 521 kts 137°
2026-05-07 13:08 38.13990 17.29930 35017 ft 521 kts 137°
2026-05-07 13:09 38.09278 17.36938 35011 ft 522 kts 137°
2026-05-07 13:09 38.04587 17.43897 35004 ft 522 kts 136°
2026-05-07 13:10 37.99867 17.50887 35011 ft 521 kts 137°
2026-05-07 13:10 37.95146 17.57862 35013 ft 521 kts 137°
2026-05-07 13:11 37.90424 17.64823 35020 ft 521 kts 137°
2026-05-07 13:11 37.85692 17.71783 35010 ft 521 kts 137°
2026-05-07 13:12 37.80978 17.78702 35003 ft 521 kts 137°
2026-05-07 13:12 37.76238 17.85645 35017 ft 521 kts 137°
2026-05-07 13:13 37.71489 17.92586 35005 ft 521 kts 137°
2026-05-07 13:13 37.66739 17.99513 35013 ft 522 kts 137°
2026-05-07 13:14 37.61981 18.06438 35017 ft 522 kts 137°
2026-05-07 13:14 37.57219 18.13354 35016 ft 522 kts 137°
2026-05-07 13:15 37.52454 18.20260 35024 ft 522 kts 137°
2026-05-07 13:15 37.47708 18.27123 35015 ft 522 kts 137°
2026-05-07 13:16 37.42929 18.34020 35002 ft 521 kts 137°
2026-05-07 13:16 37.38165 18.40881 35005 ft 520 kts 137°
2026-05-07 13:17 37.33399 18.47730 35005 ft 520 kts 137°
2026-05-07 13:17 37.28667 18.54515 35018 ft 519 kts 137°
2026-05-07 13:18 37.23903 18.61333 35019 ft 519 kts 137°
2026-05-07 13:18 37.19142 18.68132 35019 ft 519 kts 137°
2026-05-07 13:19 37.14374 18.74927 35023 ft 519 kts 137°
2026-05-07 13:19 37.09605 18.81710 35014 ft 518 kts 136°
2026-05-07 13:20 37.04835 18.88482 35033 ft 518 kts 136°